Terug naar catalogus

STARLINK-11652

ActiefCommunicatieVLEO
NORAD 63315·PAYLOAD·🇺🇸 United States

Gelanceerd Mar 18, 2025 vanaf Cape Canaveral Space Force Station

Loading…

Volgende Passages (komende 24 uur)

TLE

VersSource: CelesTrak SupGP

Epoch: Sep 14, 2026, 22:59 UTC

1 63315C 25057J   26257.95812500 -.00006695  00000+0 -51981-4 0  2571
2 63315  43.0004 203.6485 0001467 263.1790 145.7161 15.70848759    15

Volg STARLINK-11652 in realtime met AllMySat

Download on the App Store